Weather in Bellary

India     15°08′23″N   76°55′12″E
temp.,
°C
wind,
m/s
gust,
m/s
humid.,
%
clouds,
%
prec.,
mm/h
press.,
hPa
HPBL,
m
4 december, sat
sat423:30+24sse2272100 0.0 101313
02:30+23se2274100 0.0 101124
05:30+22s1177100 0.0 101111
08:30+24ene00696 0.0 1014232
11:30+28ne115539 0.0 10131129
14:30+30nne114971 0.1 10091576
17:30+28ne225953 0.1 101020
20:30+26ene226058 0.0 101217
5 december, sun
sun523:30+25sse116497 0.0 101211
02:30+25wsw116786 0.0 101117
05:30+24nw237655 0.0 101186
08:30+25nw337349 0.0 1014379
11:30+28nnw225921 0.3 10131195
14:30+29nnw125134 1.9 10091309
17:30+28ne225745 2.1 101020
20:30+26ene226118 0.0 101215
6 december, mon
mon623:30+24nw226793 0.0 101213
02:30+23nw227045 0.0 101112
05:30+22nnw227016 0.0 101122
08:30+24nnw336381 0.0 1014234
11:30+28ne235072 0.0 10131025
14:30+30nne2244100 0.0 10091776
17:30+27nne2255100 0.0 101023
20:30+25nne125412 0.0 101311
7 december, tue
tue723:30+24n11575 0.0 101311
02:30+21ene116299 0.0 101211
05:30+21se1172100 0.0 101211
08:30+24e236448 0.0 1015250
11:30+29ene34395 0.0 10141606
14:30+30ene32345 0.0 10101963
17:30+26ne33460 0.0 101123
20:30+24ese22490 0.0 101415
8 december, wed
wed823:30+22ese33575 0.0 101348
02:30+21se2373100 0.0 101241
05:30+20ese227939 0.0 101313
08:30+23e356990 0.0 1015301
11:30+28e4545100 0.0 10141321
14:30+29e3437100 0.0 10111683
17:30+26ese335059 0.0 101239
20:30+23ese335899 0.0 101440